Location: ???????
(55.4362°N, 38.1183°E)
Time: 03:43:18
(UTC+00:00)

Cosmos 1992 Rocket - Pass Details

Date: 17 June 2021
Orbit: 758 x 766 km, 74.0° (Epoch: 26 July)

Event Time Altitude Azimuth Distance (km) Brightness Sun altitude
Exits shadow 20:13:55 11° 180° (S) 2,227 5.8 -9.6°
Maximum altitude 20:18:43 48° 108° (ESE) 998 4.4 -9.8°
Drops below altitude 10° 20:23:44 10° 36° (NE) 2,313 7.1 -10.0°
Sets 20:26:11 0° 31° (NNE) 3,245 8.0 -10.0°
